When you browse on this site, cookies collect data to enhance your experience and personalize the content and advertising you see.
Visit our Privacy Policy to learn more. By continuing to use the site, you agree to this use of cookies and data.
  • In Latvia
  • List of Countries
  • For 7 days
  • Water Temperature
  • Satellite Maps
  • Weather Map
  • Weather Widgets
  • user-avatar
    Login

    Hourly Weather Popowiczki

    Today, 20 May, Monday

    Time Temperature Precipitation Wind Pressure Humidity
    00:00 +16°C° 0 mm 3 mps 747 mmHg 95%
    01:00 +14°C° 0 mm 3 mps 747 mmHg 95%
    02:00 +14°C° 0 mm 3 mps 747 mmHg 96%
    03:00 +14°C° 0 mm 3 mps 747 mmHg 96%
    04:00 +14°C° 0 mm 3 mps 747 mmHg 97%
    05:00 +16°C° 0 mm 3 mps 746 mmHg 95%
    06:00 +18°C° 0 mm 4 mps 746 mmHg 93%
    07:00 +19°C° 0 mm 4 mps 746 mmHg 90%
    08:00 +21°C° 0.3 mm 5 mps 746 mmHg 85%
    09:00 +22°C° 0.3 mm 5 mps 746 mmHg 79%
    10:00 +24°C° 0.3 mm 6 mps 745 mmHg 73%
    11:00 +23°C° 2.1 mm 6 mps 745 mmHg 75%
    12:00 +23°C° 2.1 mm 6 mps 745 mmHg 78%
    13:00 +22°C° 2.1 mm 6 mps 745 mmHg 80%
    14:00 +23°C° 0.3 mm 5 mps 745 mmHg 76%
    15:00 +25°C° 0.3 mm 5 mps 745 mmHg 71%
    16:00 +26°C° 0.3 mm 4 mps 745 mmHg 67%
    17:00 +24°C° 0.6 mm 3 mps 745 mmHg 72%
    18:00 +23°C° 0.6 mm 2 mps 745 mmHg 78%
    19:00 +21°C° 0.6 mm 1 mps 745 mmHg 83%
    20:00 +20°C° 0 mm 1 mps 745 mmHg 84%
    21:00 +19°C° 0 mm 1 mps 745 mmHg 85%
    22:00 +18°C° 0 mm 1 mps 745 mmHg 87%
    23:00 +18°C° 0.1 mm 1 mps 745 mmHg 88%

    Tomorrow, 21 May, Tuesday

    Time Temperature Precipitation Wind Pressure Humidity
    00:00 +18°C° 0.1 mm 1 mps 745 mmHg 89%
    01:00 +16°C° 0.1 mm 1 mps 745 mmHg 90%
    02:00 +16°C° 0.2 mm 1 mps 745 mmHg 91%
    03:00 +15°C° 0.2 mm 0 mps 745 mmHg 91%
    04:00 +15°C° 0.2 mm 0 mps 745 mmHg 91%
    05:00 +18°C° 0.3 mm 1 mps 745 mmHg 90%
    06:00 +19°C° 0.3 mm 1 mps 745 mmHg 88%
    07:00 +20°C° 0.3 mm 1 mps 745 mmHg 87%
    08:00 +21°C° 0.7 mm 1 mps 745 mmHg 83%
    09:00 +21°C° 0.7 mm 2 mps 745 mmHg 79%
    10:00 +23°C° 0.7 mm 2 mps 745 mmHg 74%
    11:00 +23°C° 2 mm 2 mps 745 mmHg 75%
    12:00 +22°C° 2 mm 3 mps 745 mmHg 77%
    13:00 +21°C° 2 mm 3 mps 745 mmHg 78%
    14:00 +21°C° 1 mm 3 mps 745 mmHg 77%
    15:00 +21°C° 1 mm 3 mps 745 mmHg 77%
    16:00 +21°C° 1 mm 3 mps 745 mmHg 77%
    17:00 +20°C° 0.2 mm 2 mps 744 mmHg 81%
    18:00 +19°C° 0.2 mm 2 mps 744 mmHg 85%
    19:00 +19°C° 0.2 mm 2 mps 744 mmHg 89%
    20:00 +18°C° 0 mm 1 mps 744 mmHg 91%
    21:00 +16°C° 0 mm 1 mps 744 mmHg 93%
    22:00 +15°C° 0 mm 1 mps 745 mmHg 95%
    23:00 +15°C° 0 mm 1 mps 744 mmHg 96%

    Day after tomorrow, 22 May, Wednesday

    Time Temperature Precipitation Wind Pressure Humidity
    00:00 +14°C° 0 mm 1 mps 744 mmHg 96%
    01:00 +14°C° 0 mm 1 mps 744 mmHg 97%
    02:00 +14°C° 0 mm 1 mps 744 mmHg 97%
    03:00 +14°C° 0 mm 1 mps 744 mmHg 98%
    04:00 +13°C° 0 mm 1 mps 745 mmHg 98%
    05:00 +14°C° 0 mm 1 mps 745 mmHg 97%
    06:00 +15°C° 0 mm 1 mps 745 mmHg 95%
    07:00 +16°C° 0 mm 1 mps 745 mmHg 94%
    08:00 +16°C° 0.1 mm 1 mps 745 mmHg 93%
    09:00 +16°C° 0.1 mm 1 mps 745 mmHg 92%
    10:00 +17°C° 0.1 mm 2 mps 746 mmHg 91%
    11:00 +19°C° 0.3 mm 1 mps 746 mmHg 85%
    12:00 +21°C° 0.3 mm 1 mps 746 mmHg 79%
    13:00 +22°C° 0.3 mm 1 mps 746 mmHg 72%
    14:00 +22°C° 1.3 mm 1 mps 746 mmHg 73%
    15:00 +22°C° 1.3 mm 1 mps 746 mmHg 74%
    16:00 +21°C° 1.3 mm 2 mps 746 mmHg 75%
    17:00 +20°C° 1.3 mm 2 mps 746 mmHg 78%
    18:00 +20°C° 1.3 mm 1 mps 746 mmHg 82%
    19:00 +19°C° 1.3 mm 1 mps 747 mmHg 86%
    20:00 +17°C° 0.1 mm 2 mps 747 mmHg 89%
    21:00 +16°C° 0.1 mm 3 mps 748 mmHg 91%
    22:00 +14°C° 0.1 mm 4 mps 748 mmHg 94%
    23:00 +14°C° 0.3 mm 5 mps 748 mmHg 94%

    23 May, Thursday

    Time Temperature Precipitation Wind Pressure Humidity
    00:00 +14°C° 0.3 mm 5 mps 749 mmHg 95%
    01:00 +13°C° 0.3 mm 6 mps 749 mmHg 95%
    02:00 +13°C° 0.2 mm 6 mps 749 mmHg 95%
    03:00 +13°C° 0.2 mm 6 mps 750 mmHg 94%
    04:00 +13°C° 0.2 mm 6 mps 750 mmHg 93%
    05:00 +11°C° 0 mm 6 mps 751 mmHg 92%
    06:00 +10°C° 0 mm 6 mps 751 mmHg 91%
    07:00 +10°C° 0 mm 6 mps 752 mmHg 90%
    08:00 +10°C° 0 mm 6 mps 752 mmHg 88%
    09:00 +10°C° 0 mm 6 mps 753 mmHg 85%
    10:00 +10°C° 0 mm 6 mps 753 mmHg 83%
    11:00 +10°C° 0 mm 5 mps 754 mmHg 81%
    12:00 +12°C° 0 mm 4 mps 754 mmHg 78%
    13:00 +12°C° 0 mm 4 mps 754 mmHg 76%
    14:00 +13°C° 0 mm 4 mps 754 mmHg 73%
    15:00 +14°C° 0 mm 4 mps 754 mmHg 69%
    16:00 +15°C° 0 mm 4 mps 754 mmHg 66%
    17:00 +14°C° 0 mm 4 mps 754 mmHg 69%
    18:00 +13°C° 0 mm 4 mps 754 mmHg 71%
    19:00 +12°C° 0 mm 4 mps 754 mmHg 74%
    20:00 +11°C° 0 mm 3 mps 754 mmHg 78%
    21:00 +9°C° 0 mm 3 mps 755 mmHg 83%
    22:00 +8°C° 0 mm 3 mps 755 mmHg 87%
    23:00 +7°C° 0 mm 3 mps 755 mmHg 89%

    24 May, Friday

    Time Temperature Precipitation Wind Pressure Humidity
    00:00 +7°C° 0 mm 2 mps 755 mmHg 90%
    01:00 +6°C° 0 mm 2 mps 755 mmHg 92%
    02:00 +6°C° 0 mm 2 mps 754 mmHg 92%
    03:00 +6°C° 0 mm 2 mps 754 mmHg 92%
    04:00 +6°C° 0 mm 2 mps 754 mmHg 92%
    05:00 +7°C° 0 mm 2 mps 754 mmHg 85%
    06:00 +9°C° 0 mm 2 mps 754 mmHg 78%
    07:00 +12°C° 0 mm 2 mps 754 mmHg 71%
    08:00 +14°C° 0 mm 2 mps 753 mmHg 66%
    09:00 +15°C° 0 mm 1 mps 753 mmHg 61%
    10:00 +16°C° 0 mm 1 mps 753 mmHg 55%
    11:00 +18°C° 0 mm 1 mps 752 mmHg 52%
    12:00 +19°C° 0 mm 1 mps 752 mmHg 49%
    13:00 +21°C° 0 mm 1 mps 751 mmHg 46%
    14:00 +20°C° 0 mm 1 mps 751 mmHg 45%
    15:00 +20°C° 0 mm 1 mps 751 mmHg 45%
    16:00 +20°C° 0 mm 1 mps 750 mmHg 44%
    17:00 +19°C° 0 mm 1 mps 750 mmHg 50%
    18:00 +18°C° 0 mm 1 mps 749 mmHg 55%
    19:00 +14°C° 0 mm 0 mps 749 mmHg 61%
    20:00 +14°C° 0 mm 1 mps 749 mmHg 62%
    21:00 +13°C° 0 mm 1 mps 749 mmHg 64%
    22:00 +12°C° 0 mm 1 mps 749 mmHg 65%
    23:00 +11°C° 0 mm 1 mps 749 mmHg 67%

    25 May, Saturday

    Time Temperature Precipitation Wind Pressure Humidity
    00:00 +11°C° 0 mm 1 mps 749 mmHg 70%
    01:00 +11°C° 0 mm 1 mps 749 mmHg 72%
    02:00 +10°C° 0 mm 1 mps 749 mmHg 76%
    03:00 +9°C° 0 mm 2 mps 749 mmHg 81%
    04:00 +9°C° 0 mm 2 mps 749 mmHg 85%
    05:00 +10°C° 0 mm 2 mps 749 mmHg 81%
    06:00 +13°C° 0 mm 2 mps 749 mmHg 77%
    07:00 +15°C° 0 mm 2 mps 749 mmHg 74%
    08:00 +16°C° 0 mm 2 mps 749 mmHg 67%
    09:00 +18°C° 0 mm 2 mps 749 mmHg 61%
    10:00 +19°C° 0 mm 2 mps 749 mmHg 54%
    11:00 +20°C° 0 mm 2 mps 749 mmHg 52%
    12:00 +22°C° 0 mm 1 mps 749 mmHg 49%
    13:00 +23°C° 0 mm 1 mps 749 mmHg 47%
    14:00 +23°C° 0 mm 1 mps 748 mmHg 47%
    15:00 +23°C° 0 mm 1 mps 748 mmHg 47%
    16:00 +21°C° 0 mm 0 mps 748 mmHg 47%
    17:00 +20°C° 0 mm 0 mps 748 mmHg 53%
    18:00 +19°C° 0 mm 0 mps 748 mmHg 58%
    19:00 +17°C° 0 mm 0 mps 748 mmHg 64%
    20:00 +16°C° 0 mm 0 mps 749 mmHg 65%
    21:00 +16°C° 0 mm 1 mps 749 mmHg 67%
    22:00 +15°C° 0 mm 1 mps 749 mmHg 69%
    23:00 +15°C° 0 mm 1 mps 749 mmHg 73%
    Show more